#timestamp,LO_Frequency,Hit,StdDev 
1704898815.6,286047000.7,N
1704898835.5,286047001.0,N
1704898855.3,286046998.4,N
1704898875.1,286047000.4,N
1704898895.9,286047002.8,N
1704898915.7,286047002.8,N
1704898935.6,286047000.1,N
1704898955.4,286047002.1,N
1704898975.2,286047002.0,N
1704898995.1,286047002.5,N
1704898996.0,286047002.5,N
1704899015.8,286047000.4,N
1704899035.7,286047000.0,N
1704899055.5,286047002.7,N
1704899075.3,286047002.4,N
1704899095.2,286047001.5,N
1704899115.9,286047001.4,N
1704899135.7,286047003.2,N
1704899155.6,286047004.2,Y
1704899175.4,286047001.3,P
1704899195.3,286047002.6,P
1704899215.1,286047000.2,N
1704899216.0,286047000.2,N
1704899235.8,286047002.2,N
1704899255.7,286047002.5,N
1704899275.5,286047002.1,N
1704899295.4,286047003.9,Y
1704899315.2,286047000.2,P
1704899335.0,286046999.8,N
1704899335.9,286046999.8,N
1704899355.8,286047000.4,N
1704899375.6,286046998.8,N
1704899395.4,286046998.4,N
1704899415.3,286046998.6,N
1704899435.1,286046999.5,N
1704899455.9,286046998.1,N
1704899475.7,286046999.2,N
1704899495.5,286046999.0,N
1704899515.4,286046996.6,Y
1704899535.2,286046996.6,P
1704899555.0,286046997.1,N
1704899555.9,286046997.1,N
1704899575.8,286046996.7,Y
1704899595.6,286046999.9,P
1704899615.5,286047002.7,N
1704899635.3,286047000.4,N
1704899655.1,286047000.1,N
1704899675.9,286047000.7,N
1704899695.7,286047000.2,N
1704899715.5,286046998.2,N
1704899735.4,286047000.7,N
1704899755.2,286047002.7,N
1704899775.1,286047002.3,N
1704899776.0,286047002.3,N
1704899795.8,286047001.8,N
1704899815.6,286047001.3,N
1704899835.5,286047001.4,N
1704899855.3,286047001.4,N
1704899875.1,286047001.5,N
1704899895.9,286047002.7,N
1704899915.7,286047002.2,N
1704899935.6,286047000.6,N
1704899955.4,286046999.8,N
1704899975.2,286047001.0,N
1704899995.1,286047000.6,N
1704899996.0,286047000.6,N
1704900015.8,286047000.0,N
1704900035.7,286047000.0,N
1704900055.5,286047002.8,N
1704900075.8,286047002.8,N
1704900095.7,286047002.0,N
1704900115.5,286047001.5,N
1704900135.3,286047001.7,N
1704900155.2,286047002.6,N
1704900175.0,286047002.0,N
1704900175.9,286047002.0,N
1704900195.8,286047002.1,N
1704900215.6,286047001.8,N
1704900235.4,286046999.7,N
1704900255.3,286047002.1,N
1704900275.1,286047002.7,N
1704900295.9,286047000.9,N
1704900315.7,286047000.2,N
1704900335.6,286047001.0,N
1704900355.4,286047002.7,N
1704900375.2,286047002.8,N
1704900395.1,286046999.9,N
1704900396.0,286046999.9,N
1704900415.8,286047001.1,N
1704900435.7,286046998.6,N
1704900455.5,286046998.6,N
1704900475.3,286046996.7,N
1704900495.2,286047001.2,N
1704900515.0,286047000.3,N
1704900515.9,286047000.3,N
1704900535.8,286046999.7,N
1704900555.6,286047002.7,N
1704900575.4,286047002.7,N
1704900595.3,286047002.3,N
1704900615.1,286047000.5,N
1704900635.8,286047000.0,N
1704900655.7,286047002.1,N
1704900675.5,286047001.8,N
1704900695.4,286047001.6,N
1704900715.2,286047000.1,N
1704900735.0,286047001.9,N
1704900735.9,286047001.9,N
1704900755.8,286046999.8,N
1704900775.6,286047000.9,N
1704900795.4,286047000.5,N
1704900815.3,286047000.7,N
1704900835.1,286046998.8,N
1704900855.9,286046998.2,N
1704900875.7,286047001.2,N
1704900895.5,286046998.1,N
1704900915.4,286046998.8,N
1704900935.2,286046998.5,N
1704900955.0,286046998.8,N
1704900955.9,286046998.8,N
1704900975.8,286047000.8,N
1704900995.6,286046998.5,N
1704901015.5,286046998.6,N
1704901035.3,286047001.1,N
1704901055.1,286047000.7,N
1704901075.9,286047000.7,N
1704901095.7,286047000.4,N
1704901115.5,286046999.9,N
1704901135.4,286046999.8,N
1704901155.2,286046999.7,N
1704901175.1,286047002.8,N
1704901176.0,286047002.8,N
1704901195.8,286047002.4,N
1704901215.6,286047003.9,N
1704901235.5,286047004.1,N
1704901255.3,286047003.9,N
1704901275.2,286047003.8,N
1704901295.9,286047003.1,N
1704901315.7,286047003.7,N
1704901335.6,286047001.3,N
1704901355.4,286047001.8,N
1704901375.2,286047002.7,N
1704901395.1,286046999.7,N
1704901396.0,286046999.7,N
1704901415.8,286047001.9,N
1704901435.7,286046999.7,N
1704901455.5,286047000.1,N
1704901475.3,286047002.5,N
1704901495.2,286047000.4,N
1704901515.0,286046998.5,N
1704901515.9,286046998.5,N
1704901535.8,286047000.8,N
1704901555.6,286046999.1,N
1704901575.4,286046998.7,N
1704901595.3,286046998.1,N
1704901615.1,286046998.5,N
1704901635.8,286047001.2,N
1704901655.7,286046999.0,N
1704901675.5,286046998.7,N
1704901695.4,286046998.8,N
1704901715.2,286047000.9,N
1704901735.0,286046998.6,N
1704901735.9,286046998.6,N
1704901755.8,286046998.2,N
1704901775.6,286046998.2,N
1704901795.4,286046998.4,N
1704901815.3,286046998.8,N
1704901835.1,286046998.7,N
1704901855.9,286046999.4,N
1704901875.7,286046998.5,N
1704901895.5,286046999.8,N
1704901915.4,286047002.8,N
1704901935.2,286047000.0,N
1704901955.0,286047001.2,N
1704901955.9,286047001.2,N
1704901975.8,286046998.2,N
1704901995.6,286046998.7,N
1704902015.5,286046999.4,N
1704902035.3,286046999.0,N
1704902055.1,286046998.3,N
1704902075.9,286046998.3,N
1704902095.7,286046998.3,N
1704902115.5,286047000.6,N
1704902135.4,286047000.8,N
1704902155.2,286047000.3,N
1704902175.1,286047000.4,N
1704902176.0,286047000.4,N
1704902195.8,286047000.0,N
1704902215.6,286047000.1,N
1704902235.5,286046998.7,N
1704902255.3,286046998.8,N
1704902275.2,286046998.4,N
1704902295.9,286046999.2,N
1704902315.7,286046999.0,N
1704902335.6,286047000.7,N
1704902355.4,286047000.4,N
1704902375.2,286047000.6,N
1704902395.1,286047000.7,N
1704902396.0,286047000.7,N
